This is the latest recevied weather packets stored in our database for station/object WZ9ZZZ-1. If no packets are shown the sender has not sent any weather packets the latest 1 day(s).
| Time | Temp. | Humidity | Pressure | Rain* | Wind** | Luminosity | Snow |
|---|---|---|---|---|---|---|---|
| 1777998261 | 26.11° C | 84% | 1013.6 hPa | 0 mm | 1.79 m/s, 261° | 121 W/m² | - |
| 1777997958 | 26.11° C | 84% | 1013.7 hPa | 0 mm | 1.34 m/s, 206° | 176 W/m² | - |
| 1777997655 | 25.56° C | 84% | 1013.7 hPa | 0 mm | 1.79 m/s, 69° | 136 W/m² | - |
| 1777997353 | 25.56° C | 84% | 1013.4 hPa | 0 mm | 1.79 m/s, 234° | 96 W/m² | - |
| 1777997051 | 25.56° C | 84% | 1013.5 hPa | 0 mm | 2.68 m/s, 232° | 164 W/m² | - |
| 1777996747 | 25.56° C | 84% | 1013.6 hPa | 0 mm | 3.58 m/s, 274° | 107 W/m² | - |
| 1777996443 | 25.56° C | 83% | 1013.4 hPa | 0 mm | 1.79 m/s, 237° | 89 W/m² | - |
| 1777996140 | 25.56° C | 83% | 1013.6 hPa | 0 mm | 2.24 m/s, 266° | 94 W/m² | - |
| 1777995836 | 25.56° C | 83% | 1013.6 hPa | 0 mm | 3.13 m/s, 281° | 93 W/m² | - |
| 1777995532 | 25.56° C | 84% | 1013.4 hPa | 0 mm | 1.34 m/s, 256° | 105 W/m² | - |
| 1777995229 | 25.56° C | 84% | 1013.3 hPa | 0 mm | 3.58 m/s, 246° | 167 W/m² | - |
| 1777994926 | 25.56° C | 84% | 1013.3 hPa | 0 mm | 1.79 m/s, 264° | 51 W/m² | - |
| 1777994618 | 25.56° C | 85% | 1013.4 hPa | 0 mm | 2.24 m/s, 219° | 143 W/m² | - |
| 1777994317 | 25° C | 86% | 1013.2 hPa | 0 mm | 3.13 m/s, 228° | 149 W/m² | - |
| 1777994014 | 25° C | 88% | 1013.3 hPa | 0 mm | 3.58 m/s, 256° | 203 W/m² | - |
| 1777993712 | 25° C | 90% | 1013.1 hPa | 0 mm | 0.89 m/s, 125° | 606 W/m² | - |
| 1777993409 | 24.44° C | 90% | 1013.2 hPa | 0 mm | 1.79 m/s, 207° | 476 W/m² | - |
| 1777993103 | 24.44° C | 91% | 1013 hPa | 0 mm | 2.24 m/s, 209° | 262 W/m² | - |
| 1777992802 | 23.89° C | 91% | 1013.3 hPa | 0 mm | 2.24 m/s, 199° | 131 W/m² | - |
| 1777992499 | 24.44° C | 90% | 1013.4 hPa | 0 mm | 1.79 m/s, 282° | 52 W/m² | - |
| 1777992197 | 24.44° C | 90% | 1013.4 hPa | 0 mm | 1.79 m/s, 250° | 28 W/m² | - |
| 1777991894 | 24.44° C | 89% | 1013.5 hPa | 0 mm | 0.89 m/s, 220° | 35 W/m² | - |
| 1777991592 | 24.44° C | 88% | 1013.5 hPa | 0 mm | 0.45 m/s, 217° | 24 W/m² | - |
| 1777991288 | 24.44° C | 87% | 1013.4 hPa | 0 mm | 1.34 m/s, 239° | 21 W/m² | - |
| 1777990986 | 24.44° C | 87% | 1013.3 hPa | 0 mm | 1.79 m/s, 226° | 24 W/m² | - |
* Rain latest hour (hover to see other rain measurements)
** Current wind speed in m/s (hover to see current wind gust speed)